DW8824 Weather Reports


Display with metric or nautical units.
time (UTC)temp
F
wind
direction
speed
MPH
gust
MPH
rain 1hr
in
rain 24hr
in
rain mn
in
humidity
%
barometer
mb
20260510034904 74 140 1.0 5.0 0.00 0.13 0.00 87 1018.7
20260510034404 74 144 0.0 1.0 0.00 0.13 0.00 87 1018.7
20260510033904 74 148 0.0 0.0 0.00 0.13 0.00 87 1018.7
20260510033404 74 147 0.0 0.0 0.00 0.13 0.00 87 1018.6
20260510032904 73 147 0.0 0.0 0.00 0.13 0.00 88 1018.5
20260510032404 73 146 0.0 0.0 0.00 0.13 0.00 88 1018.5
20260510031904 73 146 0.0 0.0 0.00 0.13 0.00 88 1018.5
20260510031403 73 147 0.0 0.0 0.00 0.13 0.00 88 1018.4
20260510030404 72 145 0.0 0.0 0.00 0.13 0.00 88 1018.5
20260510025904 72 163 0.0 0.0 0.00 0.13 0.00 88 1018.4
20260510025404 72 107 0.0 0.0 0.00 0.13 0.00 88 1018.3
20260510024904 71 146 0.0 3.0 0.00 0.13 0.00 88 1018.3
20260510024404 71 14 1.0 8.0 0.00 0.13 0.00 88 1018.2
20260510023904 71 158 1.0 5.0 0.00 0.13 0.00 87 1018.2
20260510023405 71 184 0.0 5.0 0.00 0.13 0.00 87 1018.1
20260510022904 71 160 0.0 6.0 0.00 0.13 0.00 87 1018.0
20260510022404 71 188 1.0 6.0 0.00 0.13 0.00 86 1018.0
20260510021404 71 171 0.0 0.0 0.00 0.13 0.00 85 1018.0
20260510020404 71 165 0.0 0.0 0.00 0.13 0.00 84 1017.8
20260510015904 71 162 0.0 3.0 0.00 0.13 0.00 83 1017.8
20260510015404 71 131 1.0 5.0 0.00 0.13 0.00 83 1017.7
20260510014904 71 170 1.0 5.0 0.00 0.13 0.00 83 1017.5
20260510014404 71 162 0.0 2.0 0.00 0.13 0.00 83 1017.6
20260510013404 71 169 0.0 5.0 0.00 0.13 0.00 82 1017.4
20260510012904 71 169 0.0 0.0 0.00 0.13 0.00 82 1017.5
20260510012405 71 180 0.0 0.0 0.00 0.13 0.00 82 1017.5
20260510011904 71 181 0.0 0.0 0.00 0.13 0.00 82 1017.5
20260510011404 71 177 2.0 7.0 0.00 0.13 0.00 82 1017.5
20260510010404 71 178 1.0 6.0 0.00 0.13 0.00 82 1017.5
20260510005904 71 183 0.0 0.0 0.00 0.13 0.00 82 1017.5
20260510005405 71 182 1.0 6.0 0.00 0.13 0.00 82 1017.5
20260510004905 71 178 1.0 5.0 0.00 0.13 0.00 82 1017.6
20260510004405 71 170 0.0 3.0 0.00 0.13 0.00 82 1017.6
20260510003904 71 168 1.0 7.0 0.00 0.13 0.00 82 1017.5
20260510003405 71 178 0.0 5.0 0.00 0.13 0.00 82 1017.5
20260510002904 71 188 0.0 3.0 0.00 0.13 0.00 82 1017.5
20260510002404 71 179 0.0 5.0 0.00 0.13 0.00 82 1017.5
20260510001905 71 179 0.0 5.0 0.00 0.13 0.00 82 1017.5
20260510000404 71 185 0.0 0.0 0.00 0.13 0.00 82 1017.6
20260509235904 71 191 0.0 5.0 0.00 0.13 0.00 82 1017.6
20260509235404 71 191 0.0 3.0 0.00 0.13 0.00 82 1017.7
20260509234904 71 192 0.0 3.0 0.00 0.13 0.00 83 1017.8
20260509234405 71 176 0.0 0.0 0.00 0.13 0.00 83 1017.8
20260509232904 71 172 0.0 0.0 0.00 0.13 0.00 83 1017.7
20260509231904 72 183 0.0 0.0 0.00 0.13 0.00 82 1017.8
20260509225904 72 176 0.0 0.0 0.00 0.13 0.00 82 1017.8
20260509225404 72 176 0.0 0.0 0.00 0.13 0.00 81 1017.8
20260509224404 73 196 0.0 0.0 0.00 0.13 0.00 80 1017.8
20260509223904 73 197 0.0 0.0 0.00 0.13 0.00 79 1017.9
20260509223404 74 198 0.0 0.0 0.00 0.13 0.00 79 1017.9
20260509222905 74 198 0.0 0.0 0.00 0.13 0.00 78 1017.9
20260509222404 75 114 0.0 0.0 0.00 0.13 0.00 77 1017.8
20260509221404 75 123 0.0 6.0 0.00 0.13 0.00 77 1017.9
20260509220904 75 117 0.0 3.0 0.00 0.13 0.00 78 1018.0
20260509220405 75 117 0.0 3.0 0.00 0.13 0.00 77 1018.0
20260509215904 75 139 1.0 5.0 0.00 0.13 0.00 77 1018.0
20260509215405 75 147 0.0 0.0 0.00 0.13 0.00 76 1018.2
20260509214904 75 117 0.0 5.0 0.00 0.13 0.00 76 1018.2
20260509214405 76 106 0.0 5.0 0.00 0.13 0.00 75 1018.2
20260509213904 76 111 2.0 8.0 0.00 0.13 0.00 75 1018.2
20260509213405 76 134 2.0 9.0 0.00 0.13 0.00 74 1018.2
20260509212904 76 94 1.0 6.0 0.00 0.13 0.00 75 1018.3
20260509212404 76 133 2.0 10.0 0.00 0.13 0.00 75 1018.2
20260509211904 76 148 4.0 12.0 0.00 0.13 0.00 76 1018.3
20260509211404 76 102 1.0 7.0 0.00 0.13 0.00 76 1018.4
20260509210904 76 72 2.0 12.0 0.00 0.13 0.00 76 1018.4
20260509210404 76 121 3.0 14.0 0.00 0.13 0.00 77 1018.4
20260509205904 76 94 2.0 9.0 0.00 0.13 0.00 78 1018.6
20260509205404 76 97 3.0 10.0 0.00 0.13 0.00 78 1018.6
20260509204905 76 138 2.0 9.0 0.00 0.13 0.00 79 1018.6
20260509204404 76 121 1.0 9.0 0.00 0.13 0.00 79 1018.7
20260509203905 76 106 1.0 8.0 0.00 0.13 0.00 78 1018.8
20260509203405 76 83 2.0 8.0 0.00 0.13 0.00 78 1018.8
20260509201404 76 105 1.0 9.0 0.00 0.13 0.00 78 1019.0
20260509200904 76 92 2.0 12.0 0.00 0.13 0.00 77 1019.0
20260509200404 76 94 2.0 10.0 0.00 0.13 0.00 77 1019.0
20260509195904 76 130 4.0 12.0 0.00 0.13 0.13 77 1019.0
20260509194904 76 112 1.0 8.0 0.00 0.13 0.13 78 1019.1
20260509194404 76 92 1.0 9.0 0.00 0.13 0.13 78 1019.1
20260509193904 76 91 3.0 9.0 0.00 0.13 0.13 78 1019.2
20260509193404 76 95 3.0 10.0 0.00 0.13 0.13 78 1019.2
20260509192904 76 101 1.0 9.0 0.00 0.13 0.13 78 1019.2
20260509192404 76 112 1.0 10.0 0.00 0.13 0.13 77 1019.2
20260509191904 76 81 2.0 7.0 0.00 0.13 0.13 77 1019.2
20260509191404 76 120 1.0 9.0 0.00 0.13 0.13 77 1019.2
20260509190904 76 128 2.0 8.0 0.00 0.13 0.13 77 1019.2
20260509190404 77 87 1.0 9.0 0.00 0.13 0.13 77 1019.2
20260509185904 77 94 3.0 10.0 0.00 0.13 0.13 78 1019.2
20260509185405 77 111 3.0 12.0 0.00 0.13 0.13 78 1019.2
20260509184904 77 123 4.0 9.0 0.00 0.13 0.13 78 1019.2
20260509184404 77 92 4.0 10.0 0.00 0.13 0.13 78 1019.3
20260509183904 77 102 3.0 13.0 0.00 0.13 0.13 78 1019.2
20260509182904 77 79 3.0 9.0 0.00 0.13 0.13 78 1019.2
20260509181904 77 124 5.0 12.0 0.00 0.13 0.13 78 1019.2
20260509180904 77 116 2.0 9.0 0.00 0.13 0.13 79 1019.2
20260509180405 77 116 4.0 12.0 0.00 0.13 0.13 79 1019.2
20260509175904 77 69 4.0 12.0 0.00 0.13 0.13 78 1019.2
20260509175404 77 107 5.0 14.0 0.00 0.14 0.13 78 1019.2
20260509173904 77 119 3.0 16.0 0.00 0.15 0.13 79 1019.2
20260509173404 77 96 3.0 13.0 0.00 0.15 0.13 80 1019.1
20260509172404 77 104 2.0 12.0 0.00 0.15 0.13 80 1019.1
20260509171904 77 89 2.0 12.0 0.00 0.15 0.13 79 1019.1
20260509170904 77 111 4.0 12.0 0.00 0.15 0.13 79 1019.2
20260509165904 77 80 4.0 14.0 0.00 0.15 0.13 80 1019.0
20260509165404 77 111 4.0 10.0 0.00 0.15 0.13 80 1019.0
20260509164904 77 112 3.0 13.0 0.00 0.15 0.13 80 1019.0
20260509164404 77 89 3.0 12.0 0.00 0.15 0.13 80 1019.0
20260509163904 77 95 2.0 10.0 0.00 0.15 0.13 80 1018.9
20260509163404 77 77 1.0 10.0 0.00 0.15 0.13 79 1018.8
20260509161405 77 127 4.0 12.0 0.00 0.15 0.13 79 1018.7
20260509160904 77 82 1.0 9.0 0.00 0.15 0.13 79 1018.7
20260509155904 77 97 2.0 8.0 0.00 0.15 0.13 79 1018.6
20260509155404 77 97 2.0 9.0 0.00 0.15 0.13 79 1018.5
20260509154904 77 87 5.0 12.0 0.00 0.15 0.13 79 1018.5
20260509153904 77 96 5.0 20.0 0.00 0.15 0.13 79 1018.4
20260509153404 77 105 2.0 13.0 0.00 0.15 0.13 80 1018.3
20260509152904 77 108 1.0 8.0 0.00 0.15 0.13 80 1018.2
20260509152404 77 90 1.0 9.0 0.00 0.15 0.13 80 1018.1
20260509151905 77 84 3.0 12.0 0.00 0.15 0.13 80 1018.1
20260509151404 77 81 2.0 10.0 0.00 0.15 0.13 79 1018.0
20260509150904 77 106 2.0 9.0 0.00 0.15 0.13 79 1017.9
20260509150403 77 120 3.0 12.0 0.00 0.15 0.13 78 1017.9
20260509145904 77 102 5.0 12.0 0.00 0.15 0.13 79 1017.8
20260509145404 77 97 3.0 12.0 0.00 0.15 0.13 79 1017.8
20260509144904 77 93 3.0 12.0 0.00 0.15 0.13 79 1017.7
20260509144404 77 90 2.0 10.0 0.00 0.15 0.13 79 1017.6
20260509143904 77 79 1.0 8.0 0.00 0.15 0.13 79 1017.6
20260509143404 77 92 3.0 14.0 0.00 0.15 0.13 79 1017.5
20260509142404 77 118 3.0 10.0 0.00 0.15 0.13 80 1017.4
20260509141904 77 100 4.0 10.0 0.00 0.15 0.13 80 1017.4
20260509141404 77 108 2.0 9.0 0.00 0.15 0.13 80 1017.4
20260509140404 77 84 2.0 9.0 0.00 0.15 0.13 80 1017.3
20260509135904 78 80 1.0 8.0 0.00 0.15 0.13 80 1017.2
20260509135404 78 87 1.0 8.0 0.00 0.15 0.13 79 1017.2
20260509134403 78 97 2.0 10.0 0.00 0.15 0.13 79 1017.2
20260509133904 78 110 2.0 13.0 0.00 0.15 0.13 79 1017.2
20260509132904 78 109 4.0 12.0 0.00 0.15 0.13 79 1017.2
20260509132404 78 66 3.0 12.0 0.00 0.15 0.13 79 1017.2
20260509131905 78 84 3.0 12.0 0.00 0.15 0.13 79 1017.1
20260509131404 78 89 3.0 10.0 0.00 0.15 0.13 79 1017.0
20260509130904 78 77 3.0 12.0 0.00 0.15 0.13 80 1017.0
20260509130404 78 85 3.0 13.0 0.00 0.15 0.13 80 1016.9
20260509125904 78 114 3.0 10.0 0.00 0.15 0.13 81 1016.9
20260509125404 78 116 2.0 8.0 0.00 0.15 0.13 80 1017.0
20260509124904 78 77 2.0 12.0 0.00 0.15 0.13 79 1016.9
20260509123903 79 89 3.0 12.0 0.00 0.15 0.13 79 1016.9
20260509122904 79 110 6.0 15.0 0.00 0.15 0.13 78 1016.9
20260509121904 80 107 5.0 13.0 0.00 0.15 0.13 80 1016.8
20260509120404 79 107 6.0 15.0 0.00 0.15 0.13 79 1016.8
20260509115904 79 95 6.0 13.0 0.00 0.15 0.13 78 1016.8
20260509114904 79 104 3.0 15.0 0.00 0.15 0.13 79 1016.6
20260509114404 80 97 6.0 16.0 0.00 0.15 0.13 78 1016.7
20260509113404 80 100 6.0 17.0 0.00 0.15 0.13 77 1016.7
20260509112903 81 88 6.0 14.0 0.00 0.15 0.13 77 1016.7
20260509111904 81 121 2.0 12.0 0.00 0.15 0.13 78 1016.7
20260509111404 80 102 9.0 18.0 0.00 0.15 0.13 77 1016.7
20260509110904 81 122 8.0 23.0 0.00 0.15 0.13 77 1016.7
20260509110404 81 84 7.0 16.0 0.00 0.15 0.13 76 1016.8
20260509105904 81 67 8.0 18.0 0.00 0.15 0.13 75 1016.6
20260509105404 81 90 3.0 12.0 0.00 0.15 0.13 78 1016.8
20260509104904 81 113 5.0 17.0 0.00 0.15 0.13 78 1016.8
20260509104404 80 74 6.0 15.0 0.00 0.15 0.13 81 1016.7
20260509103904 79 107 2.0 12.0 0.00 0.15 0.13 84 1016.7
20260509103404 78 112 3.0 9.0 0.00 0.15 0.13 85 1016.7
20260509102904 78 68 0.0 10.0 0.00 0.15 0.13 85 1016.7
20260509102404 78 105 3.0 10.0 0.00 0.15 0.13 84 1016.7
20260509101904 78 93 2.0 12.0 0.00 0.15 0.13 83 1016.8
20260509101404 79 99 7.0 16.0 0.00 0.15 0.13 82 1016.8
20260509100904 79 99 5.0 18.0 0.00 0.15 0.13 80 1016.8
20260509100404 81 102 7.0 14.0 0.00 0.15 0.13 79 1016.7
20260509095904 81 103 7.0 16.0 0.00 0.15 0.13 77 1016.8
20260509095404 81 85 9.0 20.0 0.00 0.15 0.13 77 1016.8
20260509094904 81 92 9.0 15.0 0.01 0.15 0.13 78 1016.8
20260509093903 80 98 2.0 14.0 0.01 0.15 0.13 79 1016.9
20260509093404 80 91 6.0 16.0 0.01 0.15 0.13 78 1016.9
20260509092404 81 93 7.0 12.0 0.01 0.15 0.13 78 1017.0
20260509091904 81 69 6.0 16.0 0.01 0.15 0.13 79 1017.0
20260509091404 80 59 6.0 14.0 0.01 0.15 0.13 79 1017.1
20260509090904 80 106 5.0 12.0 0.01 0.15 0.13 80 1017.1
20260509090405 80 91 3.0 12.0 0.01 0.15 0.13 82 1017.2
20260509085904 79 82 7.0 16.0 0.01 0.15 0.13 82 1017.2
20260509085404 80 96 5.0 14.0 0.01 0.15 0.13 87 1017.2
20260509084403 77 80 5.0 12.0 0.02 0.14 0.12 90 1017.3
20260509083904 77 98 1.0 8.0 0.06 0.14 0.12 90 1017.3
20260509083403 76 101 2.0 8.0 0.11 0.14 0.12 91 1017.4
20260509082905 76 66 1.0 10.0 0.11 0.14 0.12 91 1017.5
20260509082403 76 90 3.0 9.0 0.11 0.14 0.12 91 1017.7
20260509081904 76 83 3.0 12.0 0.11 0.14 0.12 91 1017.7
20260509081404 76 102 2.0 10.0 0.11 0.14 0.12 91 1017.8
20260509080904 75 94 5.0 9.0 0.11 0.14 0.12 91 1017.8
20260509080404 76 93 2.0 3.0 0.11 0.14 0.12 91 1017.8
20260509075905 76 103 3.0 9.0 0.11 0.14 0.12 91 1017.9
20260509075405 75 69 2.0 7.0 0.11 0.14 0.12 91 1017.9
20260509074904 74 70 1.0 7.0 0.11 0.14 0.12 90 1018.0
20260509074404 74 66 2.0 10.0 0.09 0.13 0.10 90 1018.1
20260509073904 74 50 3.0 9.0 0.05 0.08 0.06 88 1018.3
20260509073405 75 33 5.0 13.0 0.00 0.03 0.01 86 1018.4
20260509072904 77 42 3.0 12.0 0.00 0.03 0.01 86 1018.4
20260509072404 77 113 1.0 10.0 0.00 0.03 0.01 85 1018.3
20260509071905 78 148 3.0 10.0 0.00 0.03 0.01 84 1018.3
20260509070903 78 85 4.0 12.0 0.00 0.03 0.01 81 1018.4
20260509070404 79 82 7.0 12.0 0.00 0.03 0.01 80 1018.5
20260509065904 79 121 0.0 3.0 0.00 0.03 0.01 81 1018.6
20260509065404 78 135 2.0 10.0 0.00 0.03 0.01 81 1018.7
20260509064904 78 96 5.0 9.0 0.00 0.03 0.01 80 1018.8
20260509064404 78 118 3.0 12.0 0.00 0.03 0.01 80 1018.9
20260509063905 78 114 5.0 13.0 0.00 0.03 0.01 80 1019.0
20260509063404 78 106 7.0 13.0 0.00 0.03 0.01 79 1019.0
20260509062904 79 132 6.0 13.0 0.00 0.03 0.01 79 1019.1
20260509062404 78 72 2.0 12.0 0.00 0.03 0.01 80 1019.1
20260509061405 78 90 1.0 12.0 0.00 0.03 0.01 81 1019.2
20260509060904 78 109 7.0 14.0 0.00 0.03 0.01 80 1019.3
20260509060404 78 97 5.0 12.0 0.00 0.03 0.01 82 1019.3
20260509055904 77 83 3.0 12.0 0.01 0.03 0.01 83 1019.3
20260509055404 77 106 2.0 9.0 0.01 0.03 0.01 84 1019.4
20260509054904 76 109 5.0 12.0 0.01 0.03 0.01 85 1019.4
20260509054404 76 99 4.0 13.0 0.01 0.03 0.01 87 1019.4
20260509053904 75 117 3.0 9.0 0.01 0.03 0.01 88 1019.4
20260509053404 74 101 2.0 8.0 0.01 0.03 0.01 89 1019.6
20260509052404 74 125 1.0 9.0 0.01 0.03 0.01 90 1019.6
20260509051904 74 100 3.0 14.0 0.01 0.03 0.01 90 1019.5
20260509051404 74 108 5.0 13.0 0.01 0.03 0.01 90 1019.6
20260509050404 73 79 5.0 14.0 0.01 0.03 0.01 89 1019.6
20260509045904 73 88 1.0 8.0 0.00 0.02 0.00 88 1019.5
20260509045404 73 101 2.0 10.0 0.00 0.02 0.00 88 1019.5
20260509044904 73 110 1.0 6.0 0.00 0.02 0.00 88 1019.4
20260509044404 73 102 6.0 13.0 0.00 0.02 0.00 87 1019.4
20260509043904 74 81 7.0 14.0 0.00 0.02 0.00 86 1019.4
20260509043405 75 78 7.0 20.0 0.00 0.02 0.00 85 1019.3
20260509042904 75 84 5.0 14.0 0.00 0.02 0.00 84 1019.2
20260509042404 76 84 6.0 13.0 0.00 0.02 0.00 85 1019.0
20260509041904 75 87 6.0 14.0 0.00 0.02 0.00 86 1018.9